MOLNIYA 1-36

Last updated on Aug. 7, 2020, 5:36 a.m. UTC

1 09880U 77021A   20219.43495825 -.00000803  00000-0  14401-3 0  9991
2 09880  62.5547  12.6312 7475479 285.3451   9.4821  2.00347536215767
UTC
Height (km)
Latitude
Longitude
Inclination
Orbital Period
UTC large
Height (km)
Speed (km/s)
/
Latitude / Longitude
Inclination (degrees)
Orbital Period (minutes)
Azimuth
Elevation
Range (km)
Doppler Factor
iOS Compass Heading
iOS Angle

Next 30 passes for location: Hong Kong

Rise time Rise Azimuth (degrees) Set time Set Azimuth (degrees) Duration Max altitude (degrees)

No matching passes for this satellites